This demonstration page uses our WeatherBlox Daily Observations layout. Learn more.

Left ArrowRight Arrow

44.8408, -93.29828

Hourly Observations for April 8, 2019

Temp ( °F °C ) Dew Point ( °F °C ) Humidity (%) Winds ( mph kmh ) Pressure ( in mb ) Visibility ( mi km ) Precip ( " mm )
12:53 am 00:53 Clear 47 8.3 43 6.1 86 86 S 3 6 29.84 1010 9 14 0.00 0.00
1:53 am 01:53 Clear with Mist and Fog 46 7.8 42 5.6 86 86 S 3 6 29.83 1010 5 8 0.00 0.00
2:53 am 02:53 Clear with Mist and Fog 44 6.7 42 5.6 93 93 Calm 29.83 1010 4 6 0.00 0.00
3:18 am 03:18 Clear with Mist and Fog 44 6.7 41 5 89 89 Calm 29.83 1010 2 3 0.00 0.00
3:23 am 03:23 Clear with Mist and Fog 44 6.7 41 5 89 89 Calm 29.82 1010 1 1 0.00 0.00
3:34 am 03:34 Clear with Mist and Fog 43 6.1 41 5 93 93 Calm 29.82 1010 2 2 0.00 0.00
3:37 am 03:37 Clear with Mist and Fog 42 5.6 41 5 96 96 Calm 29.83 1010 3 5 0.00 0.00
3:53 am 03:53 Clear with Mist and Fog 44 6.7 41 5 89 89 SSW 5 7 29.82 1010 4 6 0.00 0.00
4:53 am 04:53 Clear 43 6.1 40 4.4 89 89 Calm 29.85 1011 10 16 0.00 0.00
5:53 am 05:53 Partly Cloudy 43 6.1 40 4.4 89 89 SW 3 6 29.85 1011 7 11 0.00 0.00
6:53 am 06:53 Mostly Cloudy 45 7.2 40 4.4 83 83 Calm 29.83 1010 10 16 0.00 0.00
7:53 am 07:53 Mostly Cloudy 48 8.9 41 5 77 77 SSE 5 7 29.81 1010 10 16 0.00 0.00
8:53 am 08:53 Partly Cloudy 51 10.6 42 5.6 71 71 SE 3 6 29.78 1009 10 16 0.00 0.00
9:53 am 09:53 Partly Cloudy 57 13.9 42 5.6 58 58 S 7 11 29.73 1007 10 16 0.00 0.00
10:53 am 10:53 Mostly Cloudy 64 17.8 42 5.6 45 45 WSW 18 30 29.71 1006 10 16 0.00 0.00
11:53 am 11:53 Mostly Cloudy 63 17.2 42 5.6 47 47 WSW 16 26 29.70 1006 10 16 0.00 0.00
12:53 pm 12:53 Mostly Cloudy 63 17.2 41 5 45 45 W 16 26 29.70 1006 10 16 0.00 0.00
1:53 pm 13:53 Mostly Cloudy 65 18.3 41 5 42 42 W 18 30 29.70 1006 10 16 0.00 0.00
2:53 pm 14:53 Mostly Cloudy 67 19.4 41 5 39 39 W 22 35 29.71 1006 10 16 0.00 0.00
3:53 pm 15:53 Mostly Sunny 68 20 37 2.8 32 32 NW 29 46 29.74 1007 10 16 0.00 0.00
4:53 pm 16:53 Mostly Sunny 66 18.9 37 2.8 34 34 NW 23 37 29.77 1008 10 16 0.00 0.00
5:53 pm 17:53 Mostly Sunny 64 17.8 38 3.3 38 38 NW 21 33 29.79 1009 10 16 0.00 0.00
6:53 pm 18:53 Mostly Sunny 62 16.7 38 3.3 41 41 NW 14 22 29.82 1010 10 16 0.00 0.00
7:53 pm 19:53 Mostly Clear 59 15 38 3.3 46 46 NW 12 19 29.84 1011 10 16 0.00 0.00
8:53 pm 20:53 Clear 56 13.3 37 2.8 49 49 WNW 16 26 29.86 1011 10 16 0.00 0.00
9:53 pm 21:53 Clear 54 12.2 36 2.2 51 51 WNW 12 19 29.88 1012 10 16 0.00 0.00
10:53 pm 22:53 Clear 52 11.1 35 1.7 53 53 WNW 12 19 29.89 1012 10 16 0.00 0.00
11:53 pm 23:53 Clear 51 10.6 35 1.7 54 54 NNW 14 22 29.91 1013 10 16 0.00 0.00

Powered by AerisWeather